{"data":{"norad_id":62274,"intl_designator":"2024-237H","name":"STARLINK-11504 [DTC]","alt_names":[],"object_type":"PAYLOAD","status":"ACTIVE","operator":null,"country":"US","launch_date":"2024-12-08","launch_site_code":"AFETR","launch_vehicle":null,"mission":null,"orbit_class":"UNKNOWN","rcs_meters":null,"size_class":null,"mass_kg":null,"dimensions":null,"purposes":["comms"],"wikipedia_slug":null,"has_3d_model":false,"image_url":null,"decayed_at":null,"tle_current":{"epoch":"2026-09-21T10:06:07.338528Z","epoch_age_seconds":98122,"freshness":"FRESH","line1":"1 62274U 24237H   26264.42091827  .00138060  00000+0  10624-2 0  9994","line2":"2 62274  43.0003 316.9916 0001117 261.0270  99.0471 15.70824060103788","mean_motion":15.7082406,"eccentricity":0.0001117,"inclination_deg":43.0003,"raan_deg":316.9916,"arg_perigee_deg":261.027,"mean_anomaly_deg":99.0471,"bstar":0.0010624,"rev_number":10378,"period_min":91.671628711875,"perigee_km":355.78835796673,"apogee_km":357.29288494737,"semimajor_km":6734.677621457,"source":"CELESTRAK","updated_at":"2026-09-22T09:00:49.567109Z"}}}